Weather History for Iliamna, AK

Change the Weather History Date:

Saturday, August 24, 2013

  Actual Average Record
Temperature  
Mean Temperature 58 °F -  
Max Temperature 69 °F 61 °F 72 °F (1978)
Min Temperature 48 °F 47 °F 32 °F (1943)
Degree Days  
Heating Degree Days 6    
Growing Degree Days 8 (Base 50)    
Moisture  
Dew Point 45 °F    
Average Humidity 59    
Maximum Humidity 86    
Minimum Humidity 32    
Precipitation  
Precipitation 0.00 in - - ()
Sea Level Pressure  
Sea Level Pressure 29.76 in    
Wind  
Wind Speed 9 mph (NW)    
Max Wind Speed 22 mph    
Max Gust Speed 29 mph    
Visibility 10 miles    
Events      
Averages and records for this station are not official NWS values.
T = Trace of Precipitation, MM = Missing Value Source: NWS Daily Summary

Daily Weather History Graph

Daily Weather History Graph

Search for Another Location

Airport:

Trip Planner

Search our weather history database for the weather conditions in past years. The results will help you decide how hot, cold, wet, or windy it might be!

Date:

Astronomy

Aug. 24, 2013 Rise Set
Actual Time 6:57 AM AKDT 9:44 PM AKDT
Civil Twilight 6:10 AM AKDT 10:30 PM AKDT
Nautical Twilight 5:07 AM AKDT 11:33 PM AKDT
Astronomical Twilight 3:29 AM AKDT 1:06 AM AKDT
Moon 10:21 PM AKDT (8/24) 12:27 PM AKDT (8/24)
Length of Visible Light 16h 20m
Length of Day
14h 46m
Waning Gibbous, 83% of the Moon is Illuminated
Aug 24
Waning Gibbous
Aug 28
Last Quarter
Sep 5
New
Sep 12
First Quarter
Sep 19
Full

Hourly Weather History & Observations

Time (AKDT) Temp. Dew Point Humidity Pressure Visibility Wind Dir Wind Speed Gust Speed Precip Events Conditions
12:53 AM 54.0 °F 46.0 °F 75% 29.74 in 10.0 mi North - - N/A   Mostly Cloudy
1:53 AM 54.0 °F 46.0 °F 75% 29.74 in 10.0 mi North - - N/A   Clear
2:53 AM 52.0 °F 45.0 °F 77% 29.74 in 10.0 mi North - - N/A   Clear
3:53 AM 51.1 °F 46.0 °F 83% 29.75 in 10.0 mi North - - N/A   Clear
4:53 AM 53.1 °F 46.0 °F 77% 29.74 in 10.0 mi North - - N/A   Clear
5:53 AM 50.0 °F 46.0 °F 86% 29.74 in 10.0 mi Calm Calm - N/A   Clear
6:53 AM 53.1 °F 46.0 °F 77% 29.75 in 10.0 mi WNW 10.4 mph - N/A   Partly Cloudy
7:53 AM 52.0 °F 45.0 °F 77% 29.76 in 10.0 mi North 3.5 mph - N/A   Partly Cloudy
8:53 AM 55.0 °F 46.9 °F 74% 29.76 in 10.0 mi East 6.9 mph - N/A   Partly Cloudy
9:53 AM 59.0 °F 46.0 °F 62% 29.77 in 10.0 mi WNW 8.1 mph - N/A   Clear
10:53 AM 61.0 °F 45.0 °F 56% 29.78 in 10.0 mi NNW 12.7 mph 23.0 mph N/A   Clear
11:53 AM 64.0 °F 44.1 °F 48% 29.78 in 10.0 mi NNW 10.4 mph 20.7 mph N/A   Clear
12:53 PM 64.0 °F 46.0 °F 52% 29.77 in 10.0 mi NNW 12.7 mph 25.3 mph N/A   Clear
1:53 PM 66.0 °F 46.0 °F 48% 29.77 in 10.0 mi NW 10.4 mph 19.6 mph N/A   Partly Cloudy
2:53 PM 68.0 °F 46.0 °F 45% 29.77 in 10.0 mi NNW 10.4 mph 24.2 mph N/A   Clear
3:53 PM 68.0 °F 45.0 °F 43% 29.75 in 10.0 mi NW 17.3 mph 26.5 mph N/A   Clear
4:53 PM 69.1 °F 44.1 °F 40% 29.76 in 10.0 mi NW 21.9 mph 28.8 mph N/A   Clear
5:53 PM 68.0 °F 42.1 °F 39% 29.76 in 10.0 mi NW 13.8 mph 26.5 mph N/A   Clear
6:53 PM 66.9 °F 43.0 °F 42% 29.75 in 10.0 mi NW 19.6 mph 28.8 mph N/A   Clear
7:53 PM 66.0 °F 42.1 °F 42% 29.78 in 10.0 mi WNW 17.3 mph 25.3 mph N/A   Clear
8:53 PM 63.0 °F 43.0 °F 48% 29.78 in 10.0 mi WNW 11.5 mph 15.0 mph N/A   Clear
9:53 PM 59.0 °F 43.0 °F 55% 29.79 in 10.0 mi WNW 15.0 mph - N/A   Clear
10:53 PM 57.0 °F 43.0 °F 59% 29.80 in 10.0 mi Calm Calm - N/A   Clear
11:53 PM 55.9 °F 42.1 °F 60% 29.79 in 10.0 mi WSW 8.1 mph - N/A   Clear